When you browse on this site, cookies collect data to enhance your experience and personalize the content and advertising you see.
Visit our Privacy Policy to learn more. By continuing to use the site, you agree to this use of cookies and data.
  • In Sweden
  • List of Countries
  • For 7 days
  • Water Temperature
  • Satellite Maps
  • Weather Map
  • Weather Widgets
  • user-avatar
    Login

    Hourly Weather Psary

    Today, 24 April, Wednesday

    Time Temperature Precipitation Wind Pressure Humidity
    00:00 +10°C° 0 mm 6 mps 744 mmHg 60%
    01:00 +9°C° 0 mm 6 mps 744 mmHg 61%
    02:00 +9°C° 0 mm 6 mps 744 mmHg 63%
    03:00 +9°C° 0 mm 6 mps 744 mmHg 66%
    04:00 +8°C° 0 mm 6 mps 744 mmHg 68%
    05:00 +9°C° 0 mm 6 mps 744 mmHg 68%
    06:00 +10°C° 0 mm 6 mps 744 mmHg 68%
    07:00 +11°C° 0 mm 7 mps 744 mmHg 68%
    08:00 +12°C° 0 mm 7 mps 744 mmHg 64%
    09:00 +15°C° 0 mm 7 mps 744 mmHg 61%
    10:00 +16°C° 0 mm 7 mps 744 mmHg 58%
    11:00 +17°C° 0 mm 7 mps 744 mmHg 56%
    12:00 +18°C° 0 mm 7 mps 744 mmHg 55%
    13:00 +18°C° 0 mm 7 mps 744 mmHg 53%
    14:00 +20°C° 0 mm 7 mps 744 mmHg 53%
    15:00 +20°C° 0 mm 7 mps 744 mmHg 53%
    16:00 +20°C° 0 mm 7 mps 744 mmHg 53%
    17:00 +19°C° 0 mm 6 mps 744 mmHg 58%
    18:00 +16°C° 0 mm 6 mps 744 mmHg 63%
    19:00 +15°C° 0 mm 5 mps 743 mmHg 69%
    20:00 +14°C° 0 mm 5 mps 744 mmHg 70%
    21:00 +14°C° 0 mm 5 mps 744 mmHg 72%
    22:00 +13°C° 0 mm 5 mps 744 mmHg 74%
    23:00 +13°C° 0 mm 5 mps 744 mmHg 76%

    Tomorrow, 25 April, Thursday

    Time Temperature Precipitation Wind Pressure Humidity
    00:00 +13°C° 0 mm 5 mps 744 mmHg 77%
    01:00 +13°C° 0 mm 5 mps 744 mmHg 79%
    02:00 +13°C° 0 mm 5 mps 744 mmHg 79%
    03:00 +13°C° 0 mm 5 mps 743 mmHg 79%
    04:00 +13°C° 0 mm 4 mps 743 mmHg 79%
    05:00 +14°C° 0 mm 5 mps 743 mmHg 76%
    06:00 +15°C° 0 mm 5 mps 743 mmHg 73%
    07:00 +16°C° 0 mm 5 mps 743 mmHg 70%
    08:00 +19°C° 0 mm 5 mps 743 mmHg 64%
    09:00 +20°C° 0 mm 5 mps 743 mmHg 57%
    10:00 +22°C° 0 mm 5 mps 743 mmHg 51%
    11:00 +22°C° 0 mm 5 mps 743 mmHg 50%
    12:00 +23°C° 0 mm 5 mps 743 mmHg 49%
    13:00 +23°C° 0 mm 4 mps 743 mmHg 48%
    14:00 +23°C° 0 mm 4 mps 743 mmHg 50%
    15:00 +22°C° 0 mm 4 mps 743 mmHg 51%
    16:00 +22°C° 0 mm 3 mps 743 mmHg 52%
    17:00 +21°C° 0 mm 3 mps 743 mmHg 55%
    18:00 +20°C° 0 mm 2 mps 743 mmHg 58%
    19:00 +20°C° 0 mm 1 mps 742 mmHg 61%
    20:00 +18°C° 0 mm 2 mps 743 mmHg 64%
    21:00 +18°C° 0 mm 2 mps 743 mmHg 66%
    22:00 +17°C° 0 mm 2 mps 743 mmHg 69%
    23:00 +17°C° 0 mm 2 mps 742 mmHg 71%

    Day after tomorrow, 26 April, Friday

    Time Temperature Precipitation Wind Pressure Humidity
    00:00 +16°C° 0 mm 2 mps 742 mmHg 73%
    01:00 +15°C° 0 mm 2 mps 742 mmHg 75%
    02:00 +15°C° 0 mm 2 mps 742 mmHg 75%
    03:00 +14°C° 0 mm 2 mps 742 mmHg 76%
    04:00 +14°C° 0 mm 2 mps 741 mmHg 77%
    05:00 +16°C° 0 mm 3 mps 741 mmHg 73%
    06:00 +17°C° 0 mm 3 mps 741 mmHg 70%
    07:00 +18°C° 0 mm 3 mps 741 mmHg 67%
    08:00 +20°C° 0 mm 3 mps 741 mmHg 60%
    09:00 +22°C° 0 mm 3 mps 741 mmHg 52%
    10:00 +25°C° 0 mm 3 mps 740 mmHg 45%
    11:00 +26°C° 0 mm 3 mps 740 mmHg 43%
    12:00 +26°C° 0 mm 3 mps 740 mmHg 40%
    13:00 +27°C° 0 mm 3 mps 740 mmHg 38%
    14:00 +27°C° 0 mm 3 mps 739 mmHg 39%
    15:00 +26°C° 0 mm 3 mps 739 mmHg 40%
    16:00 +26°C° 0 mm 4 mps 739 mmHg 41%
    17:00 +24°C° 0 mm 3 mps 739 mmHg 47%
    18:00 +23°C° 0 mm 2 mps 739 mmHg 53%
    19:00 +21°C° 0 mm 1 mps 739 mmHg 59%
    20:00 +19°C° 0 mm 2 mps 739 mmHg 63%
    21:00 +18°C° 0 mm 2 mps 739 mmHg 67%
    22:00 +17°C° 0 mm 2 mps 739 mmHg 72%
    23:00 +17°C° 0 mm 2 mps 739 mmHg 73%

    27 April, Saturday

    Time Temperature Precipitation Wind Pressure Humidity
    00:00 +17°C° 0 mm 3 mps 738 mmHg 75%
    01:00 +16°C° 0 mm 3 mps 738 mmHg 77%
    02:00 +16°C° 0 mm 3 mps 738 mmHg 76%
    03:00 +16°C° 0 mm 3 mps 738 mmHg 75%
    04:00 +16°C° 0 mm 3 mps 738 mmHg 73%
    05:00 +15°C° 0 mm 4 mps 738 mmHg 70%
    06:00 +15°C° 0 mm 5 mps 738 mmHg 67%
    07:00 +15°C° 0 mm 6 mps 738 mmHg 64%
    08:00 +16°C° 0 mm 6 mps 738 mmHg 61%
    09:00 +17°C° 0 mm 6 mps 738 mmHg 58%
    10:00 +19°C° 0 mm 6 mps 739 mmHg 55%
    11:00 +19°C° 0 mm 5 mps 739 mmHg 55%
    12:00 +19°C° 0 mm 5 mps 739 mmHg 56%
    13:00 +19°C° 0 mm 5 mps 739 mmHg 56%
    14:00 +20°C° 0 mm 5 mps 739 mmHg 57%
    15:00 +20°C° 0 mm 5 mps 739 mmHg 57%
    16:00 +20°C° 0 mm 4 mps 739 mmHg 58%
    17:00 +18°C° 0 mm 4 mps 739 mmHg 65%
    18:00 +15°C° 0 mm 4 mps 740 mmHg 71%
    19:00 +13°C° 0 mm 4 mps 740 mmHg 78%
    20:00 +12°C° 0 mm 4 mps 741 mmHg 77%
    21:00 +11°C° 0 mm 4 mps 741 mmHg 77%
    22:00 +9°C° 0 mm 5 mps 742 mmHg 76%
    23:00 +10°C° 0 mm 4 mps 742 mmHg 78%

    28 April, Sunday

    Time Temperature Precipitation Wind Pressure Humidity
    00:00 +8°C° 0 mm 4 mps 742 mmHg 81%
    01:00 +7°C° 0 mm 4 mps 742 mmHg 83%
    02:00 +7°C° 0 mm 4 mps 743 mmHg 84%
    03:00 +8°C° 0 mm 3 mps 743 mmHg 86%
    04:00 +7°C° 0 mm 3 mps 743 mmHg 87%
    05:00 +7°C° 0 mm 4 mps 743 mmHg 84%
    06:00 +8°C° 0 mm 4 mps 744 mmHg 80%
    07:00 +10°C° 0 mm 4 mps 744 mmHg 76%
    08:00 +12°C° 0 mm 4 mps 744 mmHg 70%
    09:00 +13°C° 0 mm 4 mps 744 mmHg 64%
    10:00 +14°C° 0 mm 4 mps 744 mmHg 59%
    11:00 +15°C° 0 mm 4 mps 744 mmHg 58%
    12:00 +15°C° 0 mm 4 mps 744 mmHg 57%
    13:00 +16°C° 0 mm 5 mps 744 mmHg 56%
    14:00 +15°C° 0 mm 4 mps 744 mmHg 61%
    15:00 +14°C° 0 mm 4 mps 744 mmHg 65%
    16:00 +14°C° 0 mm 3 mps 744 mmHg 69%
    17:00 +13°C° 0 mm 3 mps 744 mmHg 71%
    18:00 +13°C° 0 mm 3 mps 744 mmHg 73%
    19:00 +12°C° 0 mm 3 mps 744 mmHg 74%
    20:00 +12°C° 0 mm 3 mps 744 mmHg 76%
    21:00 +11°C° 0 mm 4 mps 744 mmHg 77%
    22:00 +11°C° 0 mm 4 mps 744 mmHg 78%
    23:00 +11°C° 0 mm 4 mps 744 mmHg 80%

    29 April, Monday

    Time Temperature Precipitation Wind Pressure Humidity
    00:00 +11°C° 0 mm 4 mps 744 mmHg 81%
    01:00 +11°C° 0 mm 4 mps 743 mmHg 83%
    02:00 +11°C° 0.7 mm 4 mps 743 mmHg 87%
    03:00 +11°C° 0.7 mm 4 mps 743 mmHg 91%
    04:00 +11°C° 0.7 mm 4 mps 743 mmHg 95%
    05:00 +12°C° 0.8 mm 3 mps 743 mmHg 95%
    06:00 +12°C° 0.8 mm 3 mps 743 mmHg 95%
    07:00 +13°C° 0.8 mm 3 mps 743 mmHg 95%
    08:00 +13°C° 0.7 mm 3 mps 743 mmHg 94%
    09:00 +14°C° 0.7 mm 3 mps 743 mmHg 92%
    10:00 +14°C° 0.7 mm 3 mps 743 mmHg 91%
    11:00 +16°C° 1.9 mm 3 mps 743 mmHg 90%
    12:00 +16°C° 1.9 mm 3 mps 743 mmHg 89%
    13:00 +16°C° 1.9 mm 3 mps 742 mmHg 88%
    14:00 +16°C° 0.9 mm 3 mps 742 mmHg 88%
    15:00 +17°C° 0.9 mm 4 mps 742 mmHg 88%
    16:00 +17°C° 0.9 mm 4 mps 742 mmHg 87%
    17:00 +15°C° 0.1 mm 4 mps 742 mmHg 89%
    18:00 +14°C° 0.1 mm 4 mps 742 mmHg 91%
    19:00 +14°C° 0.1 mm 4 mps 743 mmHg 93%
    20:00 +13°C° 0 mm 3 mps 743 mmHg 94%
    21:00 +13°C° 0 mm 3 mps 743 mmHg 94%
    22:00 +13°C° 0 mm 3 mps 743 mmHg 95%
    23:00 +12°C° 0 mm 3 mps 743 mmHg 95%
    Show more